Location: ????
(55.5675°N, 37.6272°E)
Time: 12:03:17
(UTC+00:00)

Cosmos 2369 Rocket - Pass Details

Date: 14 April 2026
Orbit: 829 x 850 km, 71.0° (Epoch: 9 May)

Event Time Altitude Azimuth Distance (km) Brightness Sun altitude
Rises 18:42:15 0° 325° (NW) 3,389 7.1 -16.1°
Reaches altitude 10° 18:44:44 10° 329° (NNW) 2,450 5.9 -16.3°
Maximum altitude 18:50:17 59° 49° (NE) 957 2.4 -16.9°
Enters shadow 18:53:18 27° 120° (ESE) 1,555 3.0 -17.1°
